Flag for Greece Weather past 2 weeks in Alexandroupoli, Greece

Now
68 °F

Broken clouds.


Feels Like: 68 °F
Forecast: 55 / 70 °F
Wind: 5 mph from Northeast

Location: Alexandroupoli Airport


UV Index: 3 (Moderate)

Visibility: N/A


Pressure: 29.92 "Hg

Humidity: 78%

Dew point: 61 °F

Location of AlexandroupoliLocation

Historic Weather in Alexandroupoli

°F

Alexandroupoli temperature yesterday

Maximum temperature yesterday: 68 °F (at 12:20 PM)
Minimum temperature yesterday: 52 °F (at 6:20 AM)
Average temperature yesterday: 63 °F

Past Weeks' High & Low Weather Summary

 TemperatureHumidityPressure
High75 °F (Apr 23, 2:50 PM)100% (Apr 10, 2:50 PM)30.04 "Hg (Apr 10, 2:50 PM)
Low41 °F (Apr 14, 4:20 AM)46% (Apr 9, 5:50 PM)29.56 "Hg (Apr 18, 7:50 AM)
Average57 °F76%29.88 "Hg
* Reported Apr 8 7:20 PM — Apr 23 7:50 PM, Alexandroupoli, Weather by CustomWeather, © 2014

Note: Actual official high and low records may vary slightly from our data, if they occured in-between our weather recording intervals... More about our weather records

Advertising

Historic Weather Conditions — Data for Previous 24 hours

 ConditionsComfort  
Time TempWeatherWind HumidityBarometerVisibility
7:50 PM
Apr 23
68 °FBroken clouds.No wind73%29.95 "HgN/A
7:20 PM68 °FBroken clouds.5 mph69%29.95 "HgN/A
6:50 PM70 °FBroken clouds.5 mph64%29.95 "HgN/A
6:20 PM73 °FBroken clouds.5 mph61%29.95 "HgN/A
5:50 PM73 °FBroken clouds.5 mph61%29.95 "HgN/A
5:20 PM73 °FBroken clouds.5 mph53%29.95 "HgN/A
4:50 PM73 °FBroken clouds.5 mph53%29.95 "HgN/A
4:20 PM73 °FPartly sunny.8 mph57%29.98 "HgN/A
3:50 PM75 °FPartly sunny.8 mph54%29.98 "HgN/A
3:20 PM75 °FPartly sunny.9 mph54%30.01 "HgN/A
2:50 PM75 °FPartly sunny.9 mph54%30.01 "HgN/A
2:20 PM70 °FPartly sunny.8 mph57%30.01 "HgN/A
1:50 PM72 °FPartly sunny.9 mph53%30.01 "HgN/A
1:20 PM72 °FScattered clouds.9 mph53%30.01 "HgN/A
12:50 PM72 °FScattered clouds.8 mph53%30.01 "HgN/A
12:20 PM72 °FScattered clouds.8 mph65%30.01 "HgN/A
11:50 AM70 °FPartly sunny.8 mph64%30.01 "HgN/A
11:20 AM63 °FPartly sunny.7 mph68%30.04 "HgN/A
10:50 AM63 °FMore clouds than sun.7 mph68%30.04 "HgN/A
10:20 AM61 °FMore clouds than sun.7 mph83%30.04 "HgN/A
9:50 AM59 °FMore clouds than sun.2 mph82%30.04 "HgN/A
9:20 AM59 °FMore clouds than sun.5 mph88%30.04 "HgN/A
8:50 AM57 °FMore clouds than sun.5 mph94%30.04 "HgN/A
8:20 AM55 °FMore clouds than sun.No wind94%30.01 "HgN/A
7:50 AM55 °FBroken clouds.5 mph94%30.01 "HgN/A
7:20 AM54 °FPassing clouds.3 mph94%30.01 "HgN/A
6:50 AM52 °FPassing clouds.No wind94%30.01 "HgN/A
5:50 AM54 °FPassing clouds.No wind94%30.01 "HgN/A
5:20 AM57 °FClear.No wind88%29.98 "Hg10 mi
4:50 AM57 °FClear.No wind88%29.98 "Hg10 mi
4:20 AM57 °FClear.No wind88%29.98 "Hg10 mi
10:20 PM
Apr 22
61 °FClear.7 mph68%29.98 "Hg10 mi
9:50 PM61 °FClear.7 mph68%29.98 "Hg10 mi
9:20 PM63 °FClear.7 mph68%29.95 "Hg10 mi
Weather by CustomWeather, © 2014

See weather overview